Voltar ao catálogo

ATLAS 5 CENTAUR DEB

AtivoHEO
NORAD 44646·DEBRIS·🇺🇸 United States

Lançado Oct 17, 2018 de Cape Canaveral Space Force Station

Loading…

Próximas Passagens (próximas 24 horas)

TLE

AtualizadoSource: Space-Track

Época: Sep 12, 2026, 12:31 UTC

1 44646U 18079G   26255.52214563 -.00000186  00000-0  00000-0 0  9993
2 44646  13.8482   8.3343 4742348   4.4011 358.5150  1.85996905 53664

Acompanhe ATLAS 5 CENTAUR DEB em tempo real com AllMySat

Download on the App Store